TimeCDT,TemperatureF,Dew PointF,Humidity,Sea Level PressureIn,VisibilityMPH,Wind Direction,Wind SpeedMPH,Gust SpeedMPH,PrecipitationIn,Events,Conditions,WindDirDegrees,DateUTC
12:15 AM,69.8,51.8,53,29.67,10.0,SSE,13.8,-,N/A,,Clear,160,2013-09-26 05:15:00
12:35 AM,69.8,51.8,53,29.67,10.0,SSE,13.8,-,N/A,,Clear,160,2013-09-26 05:35:00
12:55 AM,69.8,51.8,53,29.67,10.0,SSE,13.8,-,N/A,,Clear,160,2013-09-26 05:55:00
1:15 AM,69.8,50.0,49,29.67,10.0,SSE,13.8,-,N/A,,Clear,160,2013-09-26 06:15:00
1:35 AM,69.8,50.0,49,29.67,10.0,SSE,11.5,-,N/A,,Clear,160,2013-09-26 06:35:00
1:55 AM,69.8,50.0,49,29.67,10.0,SSE,13.8,-,N/A,,Clear,160,2013-09-26 06:55:00
2:15 AM,69.8,50.0,49,29.67,10.0,SSE,12.7,-,N/A,,Clear,160,2013-09-26 07:15:00
2:35 AM,68.0,48.2,49,29.67,10.0,SSE,11.5,-,N/A,,Clear,160,2013-09-26 07:35:00
2:55 AM,68.0,50.0,52,29.67,10.0,SSE,11.5,-,N/A,,Clear,160,2013-09-26 07:55:00
3:15 AM,68.0,48.2,49,29.67,10.0,SSE,11.5,-,N/A,,Clear,160,2013-09-26 08:15:00
3:35 AM,66.2,48.2,52,29.67,10.0,SSE,11.5,-,N/A,,Clear,150,2013-09-26 08:35:00
3:55 AM,66.2,50.0,56,29.67,10.0,SSE,10.4,-,N/A,,Clear,150,2013-09-26 08:55:00
4:15 AM,66.2,50.0,56,29.67,10.0,SSE,11.5,-,N/A,,Clear,160,2013-09-26 09:15:00
4:35 AM,66.2,50.0,56,29.67,10.0,SSE,10.4,-,N/A,,Clear,160,2013-09-26 09:35:00
4:55 AM,66.2,50.0,56,29.67,10.0,SSE,9.2,-,N/A,,Clear,160,2013-09-26 09:55:00
5:15 AM,66.2,50.0,56,29.67,10.0,SSE,10.4,-,N/A,,Clear,160,2013-09-26 10:15:00
5:35 AM,66.2,50.0,56,29.67,10.0,South,9.2,-,N/A,,Clear,170,2013-09-26 10:35:00
5:55 AM,66.2,50.0,56,29.66,10.0,SSE,9.2,-,N/A,,Clear,160,2013-09-26 10:55:00
6:15 AM,66.2,51.8,60,29.67,10.0,South,11.5,-,N/A,,Clear,170,2013-09-26 11:15:00
6:35 AM,66.2,51.8,60,29.67,10.0,SSE,10.4,-,N/A,,Clear,160,2013-09-26 11:35:00
6:55 AM,66.2,51.8,60,29.67,10.0,SSE,12.7,-,N/A,,Clear,160,2013-09-26 11:55:00
7:15 AM,64.4,51.8,64,29.68,10.0,South,10.4,-,N/A,,Clear,170,2013-09-26 12:15:00
7:35 AM,64.4,51.8,64,29.68,10.0,SSE,10.4,-,N/A,,Clear,160,2013-09-26 12:35:00
7:55 AM,64.4,51.8,64,29.68,10.0,SSE,10.4,-,N/A,,Clear,160,2013-09-26 12:55:00
8:15 AM,64.4,51.8,64,29.69,10.0,SSE,10.4,-,N/A,,Clear,160,2013-09-26 13:15:00
8:35 AM,66.2,51.8,60,29.69,10.0,SSE,12.7,-,N/A,,Clear,160,2013-09-26 13:35:00
8:55 AM,68.0,53.6,60,29.69,10.0,South,11.5,-,N/A,,Clear,170,2013-09-26 13:55:00
9:15 AM,69.8,53.6,56,29.69,10.0,South,15.0,-,N/A,,Clear,180,2013-09-26 14:15:00
9:35 AM,71.6,55.4,57,29.69,10.0,South,12.7,-,N/A,,Clear,170,2013-09-26 14:35:00
9:55 AM,73.4,55.4,53,29.69,10.0,South,15.0,-,N/A,,Clear,180,2013-09-26 14:55:00
10:15 AM,75.2,55.4,50,29.69,10.0,South,15.0,-,N/A,,Clear,180,2013-09-26 15:15:00
10:35 AM,78.8,55.4,44,29.70,10.0,South,13.8,-,N/A,,Clear,190,2013-09-26 15:35:00
10:55 AM,78.8,55.4,44,29.69,10.0,South,12.7,-,N/A,,Clear,190,2013-09-26 15:55:00
11:15 AM,80.6,57.2,45,29.69,10.0,South,13.8,-,N/A,,Clear,180,2013-09-26 16:15:00
11:35 AM,82.4,57.2,42,29.69,10.0,South,12.7,-,N/A,,Clear,180,2013-09-26 16:35:00
11:55 AM,84.2,57.2,40,29.69,10.0,South,10.4,-,N/A,,Clear,180,2013-09-26 16:55:00
12:15 PM,84.2,57.2,40,29.68,10.0,South,12.7,-,N/A,,Clear,180,2013-09-26 17:15:00
12:35 PM,86.0,57.2,37,29.68,10.0,South,11.5,-,N/A,,Clear,190,2013-09-26 17:35:00
12:55 PM,87.8,57.2,35,29.68,10.0,South,10.4,-,N/A,,Clear,180,2013-09-26 17:55:00
1:15 PM,87.8,59.0,38,29.67,10.0,South,11.5,-,N/A,,Clear,170,2013-09-26 18:15:00
1:35 PM,89.6,59.0,36,29.66,10.0,SSE,11.5,-,N/A,,Clear,160,2013-09-26 18:35:00
1:55 PM,89.6,59.0,36,29.66,10.0,SSE,10.4,-,N/A,,Clear,160,2013-09-26 18:55:00
2:15 PM,91.4,59.0,34,29.65,10.0,South,11.5,-,N/A,,Clear,170,2013-09-26 19:15:00
2:35 PM,91.4,57.2,31,29.64,10.0,South,11.5,-,N/A,,Clear,180,2013-09-26 19:35:00
2:55 PM,93.2,57.2,30,29.64,10.0,South,10.4,-,N/A,,Clear,170,2013-09-26 19:55:00
3:15 PM,93.2,57.2,30,29.63,10.0,South,11.5,-,N/A,,Clear,180,2013-09-26 20:15:00
3:35 PM,93.2,57.2,30,29.63,10.0,South,11.5,-,N/A,,Clear,180,2013-09-26 20:35:00
3:55 PM,93.2,57.2,30,29.63,10.0,South,10.4,-,N/A,,Clear,180,2013-09-26 20:55:00
4:15 PM,95.0,55.4,26,29.63,10.0,South,10.4,-,N/A,,Clear,180,2013-09-26 21:15:00
4:35 PM,93.2,55.4,28,29.63,10.0,South,10.4,-,N/A,,Clear,170,2013-09-26 21:35:00
4:55 PM,93.2,55.4,28,29.62,10.0,South,10.4,-,N/A,,Clear,180,2013-09-26 21:55:00
5:15 PM,93.2,55.4,28,29.62,10.0,South,9.2,-,N/A,,Clear,170,2013-09-26 22:15:00
5:35 PM,93.2,55.4,28,29.62,10.0,South,10.4,-,N/A,,Clear,170,2013-09-26 22:35:00
5:55 PM,93.2,55.4,28,29.62,10.0,South,11.5,-,N/A,,Clear,180,2013-09-26 22:55:00
6:15 PM,91.4,55.4,29,29.63,10.0,South,10.4,-,N/A,,Clear,170,2013-09-26 23:15:00
6:35 PM,91.4,55.4,29,29.63,10.0,South,10.4,-,N/A,,Clear,170,2013-09-26 23:35:00
6:55 PM,89.6,55.4,31,29.63,10.0,South,10.4,-,N/A,,Clear,170,2013-09-26 23:55:00
7:15 PM,87.8,55.4,33,29.64,10.0,SSE,10.4,-,N/A,,Clear,160,2013-09-27 00:15:00
7:35 PM,87.8,55.4,33,29.64,10.0,SSE,11.5,-,N/A,,Clear,160,2013-09-27 00:35:00
7:55 PM,86.0,55.4,35,29.65,10.0,SSE,9.2,-,N/A,,Clear,160,2013-09-27 00:55:00
8:15 PM,84.2,55.4,37,29.66,10.0,SSE,10.4,-,N/A,,Clear,160,2013-09-27 01:15:00
8:35 PM,84.2,55.4,37,29.67,10.0,South,11.5,-,N/A,,Clear,170,2013-09-27 01:35:00
8:55 PM,82.4,55.4,39,29.68,10.0,South,11.5,-,N/A,,Clear,170,2013-09-27 01:55:00
9:15 PM,82.4,55.4,39,29.68,10.0,SSE,11.5,-,N/A,,Clear,160,2013-09-27 02:15:00
9:35 PM,82.4,55.4,39,29.69,10.0,SSE,10.4,-,N/A,,Clear,160,2013-09-27 02:35:00
9:55 PM,80.6,55.4,42,29.69,10.0,South,11.5,-,N/A,,Clear,170,2013-09-27 02:55:00
10:15 PM,80.6,53.6,39,29.70,10.0,SSE,10.4,-,N/A,,Clear,160,2013-09-27 03:15:00
10:35 PM,80.6,53.6,39,29.70,10.0,South,12.7,-,N/A,,Clear,170,2013-09-27 03:35:00
10:55 PM,80.6,53.6,39,29.70,10.0,South,12.7,-,N/A,,Clear,170,2013-09-27 03:55:00
11:15 PM,80.6,53.6,39,29.70,10.0,South,13.8,-,N/A,,Clear,170,2013-09-27 04:15:00
11:35 PM,78.8,53.6,42,29.71,10.0,South,13.8,-,N/A,,Clear,170,2013-09-27 04:35:00
11:55 PM,78.8,53.6,42,29.71,10.0,South,11.5,-,N/A,,Clear,170,2013-09-27 04:55:00